Regional Weather Roundup
Issued by NWS

Home | Current Version | Previous Version | Graphics & Text | Print | Product List | Glossary On
Versions: 1 2 3 4 5 6 7 8 9 10 11 12 13 14 15 16 17 18 19 20 21 22 23 24 25 26 27 28 29 30 31 32 33 34 35 36 37 38 39 40 41 42 43 44 45 46 47 48 49 50
000
ASUS43 KOAX 201510
RWRNE

WEATHER ROUNDUP FOR NEBRASKA
NATIONAL WEATHER SERVICE OMAHA NE
900 AM CST SAT DEC 20 2014

NOTES: SATELLITE DATA IS BEING USED TO AUGMENT CLOUD COVER ABOVE
       12000 FEET.
       "FAIR" INDICATES FEW OR NO CLOUDS BELOW 12,000 FEET WITH NO
       SIGNIFICANT WEATHER AND/OR OBSTRUCTIONS TO VISIBILITY.

  * THESE STATIONS DO NOT REPORT WEATHER SUCH AS RAIN...SNOW OR FOG.

NEZ001>004-019>022-054>056-201600-
NEBRASKA PANHANDLE

CITY           SKY/WX    TMP DP  RH WIND       PRES   REMARKS
SCOTTSBLUFF    MOCLDY    19  14  81 CALM      29.98R
ALLIANCE       MOCLDY    13   9  84 W6        29.95S WCI   4
CHADRON        CLOUDY    27  21  78 SW9       29.94F WCI  18
KIMBALL        CLOUDY    32  24  71 SW9       29.98S WCI  25
SIDNEY         CLOUDY    26  19  74 W8        29.99S WCI  18
$$

NEZ057>060-069>072-079>082-201600-
SOUTHWEST NEBRASKA

CITY           SKY/WX    TMP DP  RH WIND       PRES   REMARKS
NORTH PLATTE   PTCLDY    19  16  88 CALM      30.01S FOG
IMPERIAL       CLEAR     20  15  81 CALM      30.01S
LEXINGTON      CLEAR     23  22  93 W5        30.03R FOG     WCI  17
MCCOOK         CLEAR     23  20  88 CALM      30.04S
OGALLALA       CLEAR     17  15  90 W8        30.01R WCI   7
$$

NEZ005>010-023>029-035>040-094-201600-
NORTH CENTRAL NEBRASKA

CITY           SKY/WX    TMP DP  RH WIND       PRES   REMARKS
VALENTINE      PTCLDY    14  12  92 CALM      29.95F
AINSWORTH      PTCLDY    23  17  78 SW5       29.96S WCI  17
BROKEN BOW     CLEAR     21  17  84 CALM      30.00S
O`NEILL        PTCLDY   N/A N/A N/A CALM      30.01F
THEDFORD       CLEAR     23  20  88 CALM      29.98S
$$

NEZ041-046>049-061>064-073>077-083>087-201600-
SOUTH CENTRAL NEBRASKA

CITY           SKY/WX    TMP DP  RH WIND       PRES   REMARKS
GRAND ISLAND   FOG       28  28 100 S5        30.08R VSB<1/4 WCI  23
AURORA         FOG       29  29 100 CALM      30.07R VSB<1/4
HASTINGS       HAZE      27  22  81 CALM      30.06R VSB<1/4
HEBRON         FOG       28  26  96 CALM      30.10R VSB<1/4
HOLDREGE       CLEAR     22  19  91 CALM      30.04S FOG
KEARNEY *      PTCLDY    19  18  93 SE3       30.04F
YORK           FOG       32  32 100 CALM      30.08R VSB<1/4
$$

NEZ011>018-030>034-042>045-201600-
NORTHEAST NEBRASKA

CITY           SKY/WX    TMP DP  RH WIND       PRES   REMARKS
NORFOLK        CLOUDY    32  30  92 S8        30.07R FOG     WCI  25
ALBION         FOG       30  28  93 S6        30.06R VSB 1/4 WCI  24
BLAIR          FOG       33  32  96 S7        30.10S VSB 1   WCI  26
COLUMBUS *     CLOUDY    32  27  80 S5        30.10R WCI  27
FREMONT        CLOUDY    33  33  99 CALM      30.11R FOG
TEKAMAH        FOG       32  31  96 SE8       30.11F VSB 3/4 WCI  25
WAYNE          CLOUDY    32  31  95 S9        30.09R FOG     WCI  24
$$

NEZ050>053-065>068-078-088>093-201600-
SOUTHEAST NEBRASKA

CITY           SKY/WX    TMP DP  RH WIND       PRES   REMARKS
LINCOLN        CLOUDY    32  31  96 SW3       30.11S FOG
OMAHA EPPLEY   DRZL/FOG  33  32  96 S9        30.13S VSB 1   WCI  25
BEATRICE       FOG       32  32 100 SW6       30.10R VSB 1/2 WCI  26
FALLS CITY     CLOUDY    33  30  88 S6        30.13S WCI  28
NEBRASKA CITY  CLOUDY    32  32 100 SW5       30.11S FOG     WCI  28
PLATTSMOUTH    FOG       32  30  94 SE5       30.11S VSB 1   WCI  27
$$

NEZ044-045-051>053-067-201600-
OMAHA AREA

CITY           SKY/WX    TMP DP  RH WIND       PRES   REMARKS
OMAHA EPPLEY   DRZL/FOG  33  32  96 S9        30.13S VSB 1   WCI  25
BLAIR          FOG       33  32  96 S7        30.10S VSB 1   WCI  26
FREMONT        CLOUDY    33  33  99 CALM      30.11R FOG
MILLARD        CLOUDY    33  32  96 SE5       30.12S FOG     WCI  28
OFFUTT AFB     CLOUDY    32  32 100 SE6       30.12S FOG     WCI  26
PLATTSMOUTH    FOG       32  30  94 SE5       30.11S VSB 1   WCI  27
WAHOO          CLOUDY    32  31  95 S3        30.10R FOG
$$



USA.gov is the U.S. government's official web portal to all federal, state and local government web resources and services.